Date,TemperatureHighF,TemperatureAvgF,TemperatureLowF,DewpointHighF,DewpointAvgF,DewpointLowF,HumidityHigh,HumidityAvg,HumidityLow,PressureMaxIn,PressureMinIn,WindSpeedMaxMPH,WindSpeedAvgMPH,GustSpeedMaxMPH,PrecipitationSumIn
2013-1-1,68.9,60.8,50.1,67.9,57.6,44.2,98,89,76,30.12,29.80,22,7,23,0.06
2013-1-2,50.1,43.8,40.9,45.0,40.2,37.8,95,87,74,30.25,30.09,19,7,19,0.37
2013-1-3,49.2,45.5,42.9,38.2,36.6,32.1,82,72,53,30.33,30.22,18,7,18,0.00
2013-1-4,49.6,47.9,44.2,43.5,39.9,37.2,96,74,65,30.37,30.27,22,9,22,0.02
2013-1-5,49.4,47.3,45.2,46.6,43.0,38.2,95,85,70,30.29,30.18,20,6,20,0.00
2013-1-6,59.6,51.3,46.1,47.9,45.8,43.3,93,82,60,30.30,30.19,14,5,14,0.00
2013-1-7,58.9,53.2,45.1,57.2,50.4,42.2,99,90,79,30.24,29.93,20,6,20,0.02
2013-1-8,68.3,63.1,57.0,67.5,62.8,56.7,100,99,95,29.93,29.72,26,6,26,0.07
2013-1-9,69.1,63.4,58.1,68.8,62.3,57.5,100,96,86,29.98,29.74,28,4,28,0.66
2013-1-10,64.5,58.9,53.8,58.6,54.2,48.5,100,86,61,30.06,29.97,15,4,15,0.01
2013-1-11,73.0,65.6,56.3,69.7,64.3,55.5,100,96,87,29.99,29.76,17,5,17,0.01
2013-1-12,72.0,69.7,67.9,71.1,69.5,67.9,100,99,93,29.79,29.60,26,10,26,0.00
2013-1-13,70.4,55.1,47.1,70.3,47.6,38.0,100,77,55,30.03,29.64,27,9,27,0.02
2013-1-14,50.7,45.7,42.8,45.0,40.7,37.1,96,83,65,30.12,30.00,21,7,21,0.00
2013-1-15,46.5,44.0,41.6,45.7,42.2,36.8,99,94,81,30.17,29.97,22,7,22,0.13
2013-1-16,57.5,46.2,38.6,37.1,27.8,20.3,81,51,24,30.32,30.15,25,7,25,0.00
2013-1-17,64.8,48.7,35.6,46.6,36.0,25.2,91,63,39,30.39,30.25,13,3,14,0.00
2013-1-18,63.4,52.8,42.6,51.9,47.5,40.9,97,83,59,30.44,30.26,14,4,15,0.00
2013-1-19,70.6,59.9,51.9,56.8,52.9,49.1,98,80,50,30.25,30.10,15,4,15,0.01
2013-1-20,70.9,59.7,49.1,59.6,54.8,47.7,100,85,64,30.19,30.05,13,3,13,0.00
2013-1-21,68.6,60.6,52.9,61.0,56.8,51.8,98,88,72,30.17,30.05,13,3,13,0.01
2013-1-22,71.3,61.0,51.9,61.4,57.1,50.6,99,88,62,30.23,30.10,14,3,14,0.01
2013-1-23,74.6,64.9,56.0,66.5,61.4,55.7,100,89,72,30.27,30.16,18,4,18,0.00
2013-1-24,75.1,67.1,62.4,65.9,63.8,61.5,97,90,72,30.23,30.08,22,7,22,0.00
2013-1-25,75.1,67.4,62.0,66.8,64.5,61.7,99,91,74,30.11,29.99,22,8,22,0.01
2013-1-26,74.9,68.2,64.0,65.6,64.2,62.6,99,88,71,30.09,29.99,21,8,21,0.01
2013-1-27,74.2,68.9,65.3,69.9,67.3,63.2,100,95,86,30.03,29.90,21,9,23,0.00
2013-1-28,75.3,70.0,67.4,70.1,68.5,67.0,100,95,84,30.01,29.84,28,12,28,0.00
2013-1-29,75.6,70.3,66.9,70.5,67.4,48.8,100,92,48,29.86,29.53,31,12,31,0.00
2013-1-30,68.6,62.4,56.3,49.5,29.8,18.8,51,30,17,30.18,29.68,29,10,29,0.00
2013-1-31,67.3,56.3,39.3,52.7,38.9,26.6,84,55,24,30.27,30.16,19,5,19,0.00
2013-2-1,70.8,62.0,51.6,57.5,53.1,48.1,97,75,50,30.29,30.15,17,4,17,0.00
2013-2-2,74.2,65.5,59.2,62.7,59.8,56.9,95,82,62,30.18,30.10,15,4,15,0.00
2013-2-3,70.3,63.0,54.5,62.8,59.8,53.7,100,90,74,30.24,29.97,14,5,14,0.01
2013-2-4,75.3,68.0,63.5,67.5,64.1,59.6,95,87,75,29.97,29.74,20,7,20,0.00
2013-2-5,79.4,69.3,61.2,69.6,66.8,60.9,100,92,72,29.90,29.79,17,5,17,0.01
2013-2-6,70.9,67.0,63.5,70.9,66.5,62.5,100,98,92,29.94,29.75,26,8,26,2.19
2013-2-7,74.6,67.2,63.5,68.7,65.8,63.0,99,95,81,29.93,29.81,12,4,12,0.00
2013-2-8,70.3,63.3,58.0,66.0,57.1,49.7,100,81,50,30.12,29.93,21,7,21,0.01
2013-2-9,73.0,67.7,62.6,69.3,65.7,59.8,100,93,85,30.01,29.74,25,8,25,0.00
2013-2-10,81.6,70.1,65.0,71.8,64.8,53.4,100,84,62,29.86,29.68,25,9,25,0.00
2013-2-11,66.0,62.5,59.2,62.0,59.4,55.5,100,90,72,29.91,29.81,23,11,23,0.01
2013-2-12,68.3,62.3,59.5,62.7,60.1,57.7,100,93,74,29.93,29.75,21,5,21,0.01
2013-2-13,62.4,57.0,52.6,60.4,47.6,40.5,94,72,53,30.11,29.90,27,6,27,0.00
2013-2-14,65.6,58.0,47.0,51.9,46.6,36.8,87,67,40,30.09,29.98,14,5,14,0.00
2013-2-15,68.8,61.7,53.3,55.8,52.3,43.3,92,72,50,30.24,29.99,29,6,29,0.00
2013-2-16,62.7,55.1,47.3,46.0,37.5,27.6,69,53,30,30.42,30.21,25,7,27,0.00
2013-2-17,68.9,60.3,43.9,59.2,51.7,41.7,92,74,54,30.21,29.95,23,7,23,0.00
2013-2-18,73.5,67.7,65.0,66.1,63.1,59.6,94,86,75,29.95,29.79,29,9,29,0.00
2013-2-19,67.1,63.4,60.9,63.8,54.9,47.1,98,74,61,30.15,29.93,27,10,27,0.00
2013-2-20,71.5,67.8,63.5,69.0,64.9,57.8,99,91,82,29.96,29.61,25,10,25,0.00
2013-2-21,81.4,71.8,66.3,70.2,64.5,52.8,97,79,54,29.75,29.54,30,9,30,0.00
2013-2-22,69.1,65.7,60.5,59.9,53.8,44.8,85,66,44,29.87,29.73,28,10,28,0.00
2013-2-23,70.8,60.0,54.1,56.3,50.4,44.7,91,71,50,29.96,29.82,21,6,25,0.00
2013-2-24,67.1,62.5,52.0,65.7,60.8,50.3,100,94,87,29.85,29.55,13,4,13,0.02
2013-2-25,72.8,66.2,56.2,68.1,43.7,21.3,100,55,15,29.82,29.46,36,11,36,0.01
2013-2-26,69.6,57.2,40.9,54.2,37.8,28.7,83,50,25,29.96,29.80,22,6,22,0.00
2013-2-27,75.6,62.5,52.2,60.4,48.3,35.4,97,64,25,30.12,29.81,20,5,21,0.00
2013-2-28,61.0,54.9,48.9,38.0,32.3,26.8,60,43,30,30.24,30.12,24,8,24,0.00
2013-3-1,67.1,57.0,46.0,50.3,37.2,28.9,80,50,26,30.23,30.08,18,4,18,0.00
2013-3-2,65.3,56.6,47.9,48.5,37.9,29.5,88,53,27,30.35,30.18,23,7,23,0.00
2013-3-3,68.8,58.2,41.9,55.8,46.8,33.9,81,67,49,30.23,29.95,25,7,25,0.00
2013-3-4,74.4,67.0,61.8,63.3,60.1,55.5,93,79,61,29.95,29.70,32,12,32,0.00
2013-3-5,69.6,63.9,57.0,63.1,47.7,31.1,94,60,29,30.24,29.74,35,10,35,0.00
2013-3-6,61.3,55.2,47.9,51.8,39.9,27.0,87,57,38,30.36,30.16,26,8,26,0.00
2013-3-7,72.7,64.7,56.0,62.8,58.7,51.2,93,81,67,30.16,30.04,20,7,20,0.00
2013-3-8,75.6,68.8,65.3,67.1,64.7,62.6,94,87,75,30.06,29.96,21,9,21,0.00
2013-3-9,74.4,69.1,66.9,67.5,65.9,64.5,95,90,79,29.95,29.61,31,12,31,0.00
2013-3-10,74.2,68.1,58.9,68.2,56.2,41.5,97,69,34,30.00,29.53,30,9,30,0.10
2013-3-11,71.5,59.9,52.9,50.4,38.1,27.9,70,46,21,30.11,29.95,24,7,24,0.00
2013-3-12,71.8,61.1,47.1,55.3,48.8,41.9,88,66,45,30.16,30.01,16,4,16,0.00
2013-3-13,68.4,62.7,53.9,59.8,55.8,51.5,97,79,63,30.34,30.16,18,6,18,0.00
2013-3-14,74.2,66.5,60.2,60.8,58.3,56.2,92,76,59,30.32,30.19,19,6,19,0.00
2013-3-15,73.9,67.4,62.3,62.8,61.0,58.4,92,80,64,30.21,29.99,24,8,25,0.00
2013-3-16,75.8,68.9,65.2,65.9,64.0,62.0,93,85,70,30.00,29.75,28,10,29,0.00
2013-3-17,77.2,70.7,66.1,69.3,67.1,64.5,98,88,76,29.79,29.60,25,10,25,0.00
2013-3-18,78.1,71.3,67.1,68.8,67.5,65.6,99,88,72,29.81,29.65,21,6,21,0.00
2013-3-19,78.1,70.3,65.0,69.1,67.3,62.2,99,91,72,29.91,29.75,17,6,17,0.00
2013-3-20,72.8,67.8,63.7,68.4,60.0,50.4,97,77,57,30.07,29.81,37,12,37,0.02
2013-3-21,72.8,68.5,63.5,67.2,63.0,58.5,93,83,71,29.98,29.61,21,8,23,0.00
2013-3-22,77.4,71.8,68.9,71.6,69.5,67.2,97,92,81,29.67,29.56,22,7,22,0.00
2013-3-23,77.6,71.6,66.6,73.0,69.4,65.8,100,93,75,29.63,29.51,18,4,18,0.01
2013-3-24,67.8,64.6,60.2,66.4,48.2,26.9,100,64,23,30.01,29.59,27,9,27,0.01
2013-3-25,59.8,55.1,49.8,38.8,33.8,26.5,65,45,29,30.27,30.06,15,9,25,0.00
2013-3-26,63.4,58.4,54.1,42.4,36.9,29.9,61,45,31,30.39,30.27,22,8,22,0.00
2013-3-27,67.6,62.2,57.0,60.0,50.5,41.5,87,66,55,30.28,30.13,20,8,20,0.00
2013-3-28,73.2,67.4,63.7,63.9,61.6,58.5,91,82,72,30.15,30.07,18,6,18,0.00
2013-3-29,77.0,69.7,64.7,66.4,64.4,62.1,93,84,70,30.12,30.00,21,8,21,0.00
2013-3-30,78.3,70.8,66.8,70.1,67.0,63.4,95,88,74,30.04,29.87,23,8,24,0.00
2013-3-31,77.4,71.7,68.3,71.6,68.6,66.6,98,90,79,29.92,29.73,26,8,26,0.00
2013-4-1,76.1,70.9,67.4,70.4,68.7,67.1,99,93,79,29.96,29.84,20,7,20,0.00
2013-4-2,77.7,71.9,69.3,71.5,69.8,68.5,98,93,81,29.92,29.71,17,7,17,0.00
2013-4-3,74.6,66.9,56.9,70.6,61.7,52.9,100,84,67,30.04,29.73,24,9,24,0.02
2013-4-4,74.6,62.1,54.8,53.1,50.5,47.4,87,68,40,30.12,29.98,20,7,20,0.00
2013-4-5,66.0,59.1,50.5,57.5,52.0,46.2,86,78,65,30.21,30.03,16,6,16,0.00
2013-4-6,75.3,68.5,62.1,64.4,61.6,57.2,89,79,65,30.04,29.83,26,9,27,0.00
2013-4-7,77.2,71.1,66.6,67.6,65.6,63.2,92,83,69,29.87,29.75,26,9,26,0.00
2013-4-8,77.4,72.5,69.3,71.0,69.4,67.4,96,90,78,29.76,29.60,27,10,27,0.00
2013-4-9,79.4,74.0,70.3,72.6,70.7,68.0,98,90,78,29.66,29.52,32,12,32,0.00
2013-4-10,80.1,69.0,58.0,73.2,65.2,51.7,96,88,72,29.77,29.55,26,10,27,0.00
2013-4-11,69.3,58.9,48.5,54.0,48.2,42.7,95,69,43,29.90,29.73,25,8,25,0.70
2013-4-12,72.7,63.6,52.2,63.3,58.0,50.3,98,83,69,29.90,29.80,22,6,22,0.00
2013-4-13,76.0,70.1,66.0,65.8,64.2,62.4,95,82,67,29.88,29.67,22,7,22,0.00
2013-4-14,80.7,73.2,67.8,72.6,69.4,65.2,97,88,74,29.72,29.60,23,7,23,0.00
2013-4-15,81.4,75.1,70.4,73.2,71.0,68.8,98,88,74,29.75,29.64,24,9,24,0.00
2013-4-16,78.5,74.4,72.5,74.0,72.1,70.1,99,93,82,29.81,29.70,21,8,21,0.00
2013-4-17,79.6,75.2,73.0,75.5,73.6,72.6,100,95,84,29.80,29.59,23,9,25,0.00
2013-4-18,80.3,69.2,59.8,75.6,65.0,48.0,100,87,65,29.98,29.55,30,10,30,0.05
2013-4-19,67.3,58.9,51.6,49.1,42.0,29.7,83,55,34,30.24,29.98,26,7,26,0.02
2013-4-20,71.1,61.1,47.6,57.1,49.7,43.7,93,69,42,30.16,29.98,18,5,18,0.00
2013-4-21,77.0,69.6,62.6,65.6,61.3,56.2,91,75,61,30.04,29.95,18,7,18,0.00
2013-4-22,79.2,72.2,67.6,68.9,67.0,64.5,93,84,68,30.02,29.86,19,8,19,0.00
2013-4-23,79.8,73.3,69.6,72.0,70.2,67.8,96,90,75,29.88,29.76,25,9,25,0.00
2013-4-24,73.5,58.4,51.0,72.1,54.1,47.9,98,86,71,30.13,29.87,30,8,30,0.05
2013-4-25,68.1,63.9,61.5,67.6,58.6,51.1,100,84,64,30.19,30.07,26,7,26,0.02
2013-4-26,78.1,72.5,68.1,72.9,70.7,67.8,100,95,83,30.10,29.97,19,7,21,0.00
2013-4-27,80.3,74.6,71.5,73.4,71.9,70.3,99,92,78,30.01,29.85,19,7,19,0.00
2013-4-28,75.3,71.2,66.4,72.3,69.2,65.5,100,94,86,29.96,29.78,23,6,23,1.39
2013-4-29,79.6,72.8,67.9,73.6,70.6,65.8,100,93,77,29.87,29.72,25,5,25,0.00
2013-4-30,79.6,73.2,63.7,73.0,69.9,62.8,98,90,78,29.76,29.65,23,6,23,0.59
2013-5-1,81.6,75.6,72.1,74.5,72.8,70.8,100,91,74,29.83,29.68,17,6,17,0.00
2013-5-2,80.3,69.3,55.3,72.7,62.7,44.9,99,80,62,30.19,29.76,33,8,33,0.05
2013-5-3,70.3,60.4,52.5,45.8,37.3,32.0,71,44,27,30.24,30.03,31,8,31,0.00
2013-5-4,76.0,64.6,51.4,57.1,48.9,40.1,82,59,32,30.05,29.85,20,6,20,0.00
2013-5-5,77.6,68.4,56.5,63.0,58.5,54.4,93,72,52,30.03,29.89,16,4,16,0.00
2013-5-6,76.7,69.2,57.5,65.2,60.2,56.1,97,74,56,30.05,29.92,15,4,15,0.00
2013-5-7,79.4,71.7,61.6,68.1,64.0,60.0,96,77,60,30.01,29.90,19,6,19,0.00
2013-5-8,80.5,74.6,70.9,71.2,69.2,66.7,93,84,70,29.96,29.85,22,9,22,0.00
2013-5-9,79.2,75.7,73.2,75.1,73.3,71.2,99,92,84,29.89,29.75,22,9,22,0.00
2013-5-10,78.3,74.6,71.6,76.6,73.4,69.2,99,96,90,29.87,29.75,23,6,23,0.06
2013-5-11,81.8,75.3,69.9,71.8,69.4,66.6,99,83,65,30.02,29.86,14,6,19,0.21
2013-5-12,76.7,71.9,65.5,71.9,65.2,59.2,98,80,63,30.11,29.97,20,6,20,0.91
2013-5-13,79.8,72.7,65.0,68.4,65.8,62.9,96,80,62,30.19,30.08,18,6,18,0.00
2013-5-14,82.2,75.6,71.8,72.9,70.3,66.7,92,84,71,30.15,30.00,21,8,21,0.00
2013-5-15,79.0,75.5,73.0,75.4,73.0,71.1,100,92,85,30.05,29.82,26,10,26,0.28
2013-5-16,81.8,77.0,73.7,75.9,73.6,71.4,95,90,81,29.84,29.68,31,10,31,0.00
2013-5-17,84.0,78.2,74.6,76.4,74.5,72.1,96,89,69,29.84,29.72,26,9,26,0.00
2013-5-18,84.5,78.7,76.1,76.6,75.3,72.6,98,90,71,29.86,29.76,27,8,27,0.01
2013-5-19,83.2,78.9,76.5,76.8,75.5,74.5,96,90,79,29.82,29.69,19,4,19,0.00
2013-5-20,83.8,78.7,76.3,77.2,75.8,74.7,97,91,80,29.78,29.66,16,4,16,0.00
2013-5-21,84.3,79.5,76.7,77.5,76.4,75.4,98,91,79,29.74,29.64,15,4,15,0.00
2013-5-22,84.1,79.9,77.4,78.1,77.0,75.2,99,91,76,29.82,29.71,15,4,15,0.00
2013-5-23,84.9,80.0,77.0,79.0,77.3,76.3,99,92,81,29.92,29.78,16,4,16,0.00
2013-5-24,84.9,80.2,78.1,78.1,76.8,75.4,98,90,76,30.02,29.89,19,5,19,0.00
2013-5-25,82.6,79.5,77.7,77.7,76.5,75.2,95,91,84,30.03,29.94,16,5,16,0.00
2013-5-26,84.5,79.8,76.8,75.2,74.5,73.2,92,84,71,30.02,29.90,16,4,16,0.00
2013-5-27,85.7,80.6,77.6,77.0,75.6,73.9,94,85,73,29.95,29.81,17,4,17,0.00
2013-5-28,85.5,80.7,78.3,77.5,76.2,74.3,93,86,74,29.85,29.73,18,6,18,0.00
2013-5-29,83.4,80.0,77.7,78.0,76.7,74.3,97,90,82,29.79,29.67,20,4,20,0.06
2013-5-30,88.0,81.8,77.0,79.1,77.3,62.7,97,87,61,29.77,29.69,23,6,23,0.01
2013-5-31,88.2,82.8,79.4,79.1,77.9,76.1,94,86,73,29.81,29.72,26,11,26,0.00
2013-6-1,88.2,83.0,80.1,79.3,77.7,76.6,92,84,72,29.82,29.73,22,12,27,0.00
2013-6-2,88.8,81.6,74.9,79.9,76.2,71.3,96,84,64,29.95,29.80,24,6,24,0.06
2013-6-3,87.6,80.8,72.3,76.0,73.2,70.3,95,78,65,29.89,29.76,15,4,16,0.00
2013-6-4,88.6,80.5,70.9,76.3,72.9,70.3,99,79,60,29.82,29.75,15,4,16,0.00
2013-6-5,89.9,82.9,77.0,77.0,75.1,73.2,91,78,63,29.80,29.72,16,5,17,0.00
2013-6-6,91.0,83.5,76.0,78.2,76.3,74.5,96,80,64,29.78,29.68,14,4,16,0.00
2013-6-7,86.1,80.0,71.3,77.8,74.7,69.0,95,84,70,29.87,29.76,28,5,29,0.19
2013-6-8,89.5,81.7,74.0,78.3,75.3,70.2,92,81,67,29.84,29.73,19,4,20,0.01
2013-6-9,91.6,84.6,80.7,78.9,77.0,73.5,92,79,58,29.86,29.75,20,7,21,0.01
2013-6-10,91.0,84.4,78.8,79.1,76.7,73.3,92,78,64,29.90,29.84,17,5,18,0.00
2013-6-11,89.5,84.2,80.1,78.7,76.4,73.4,89,78,67,29.95,29.87,20,6,21,0.00
2013-6-12,89.0,84.0,76.5,79.7,77.5,74.0,95,81,68,29.96,29.89,20,8,21,0.15
2013-6-13,90.5,84.0,81.6,79.9,78.0,76.1,88,83,70,29.96,29.85,19,6,20,0.00
2013-6-14,89.5,83.9,81.6,80.1,78.4,76.7,91,84,73,29.90,29.81,18,7,19,0.01
2013-6-15,91.2,84.8,81.1,78.3,77.1,74.7,89,78,62,29.91,29.82,20,8,21,0.00
2013-6-16,90.5,84.3,81.1,80.1,77.7,75.7,88,81,70,29.93,29.85,23,8,24,0.00
2013-6-17,90.7,84.7,81.1,79.9,78.0,75.6,91,81,68,29.91,29.80,23,9,24,0.00
2013-6-18,90.5,84.3,79.2,78.7,77.3,76.2,91,80,66,29.90,29.81,21,7,22,0.00
2013-6-19,90.3,84.2,79.6,78.6,77.0,75.7,90,79,65,29.93,29.84,23,7,24,0.00
2013-6-20,91.4,84.8,80.5,79.3,77.9,76.1,90,80,66,29.98,29.88,22,7,23,0.00
2013-6-21,91.4,84.6,80.5,78.9,77.6,76.1,90,80,64,30.01,29.93,18,7,19,0.00
2013-6-22,90.5,84.3,79.9,78.3,77.3,74.8,92,80,62,29.97,29.86,21,7,22,0.00
2013-6-23,90.5,84.0,79.4,78.1,76.8,74.1,92,80,62,29.92,29.84,24,8,25,0.00
2013-6-24,89.5,84.3,80.5,79.0,77.7,76.3,92,81,68,29.96,29.86,28,9,30,0.00
2013-6-25,89.5,83.5,79.8,78.9,77.7,75.7,92,83,70,29.94,29.84,28,9,29,0.00
2013-6-26,91.0,83.8,79.8,79.5,78.2,76.6,94,84,67,29.91,29.84,24,8,25,0.00
2013-6-27,91.2,83.8,79.0,78.8,77.4,75.8,93,82,66,29.94,29.85,21,7,22,0.00
2013-6-28,91.0,84.0,78.1,78.6,77.1,75.1,95,81,64,29.92,29.77,23,6,24,0.00
2013-6-29,93.4,84.4,76.5,78.5,76.0,73.5,95,77,58,29.81,29.66,17,6,22,0.00
2013-6-30,85.7,79.9,72.1,76.7,72.2,68.4,97,78,59,29.87,29.69,34,4,35,0.68
2013-7-1,91.4,81.9,73.9,78.2,72.6,67.8,94,75,51,29.89,29.77,19,4,20,0.00
2013-7-2,92.1,83.5,78.5,75.9,69.8,61.8,87,65,42,29.96,29.87,16,3,17,0.00
2013-7-3,90.7,80.4,73.0,74.8,71.7,68.9,89,76,53,29.95,29.83,15,3,17,0.00
2013-7-4,89.7,81.9,72.0,75.3,73.6,70.3,96,77,59,29.91,29.82,14,4,15,0.00
2013-7-5,90.1,83.3,75.3,77.4,74.5,70.2,94,76,56,29.88,29.77,16,4,17,0.00
2013-7-6,89.5,83.6,76.7,79.3,76.7,74.6,96,80,65,29.83,29.76,19,5,20,0.00
2013-7-7,91.0,83.5,79.8,77.9,75.9,72.1,90,78,56,29.91,29.80,22,6,23,0.00
2013-7-8,90.3,84.1,78.3,79.0,77.1,73.1,89,80,67,30.03,29.90,20,7,22,0.00
2013-7-9,91.6,85.1,80.5,79.5,78.0,75.6,92,80,63,30.04,29.95,17,5,18,0.00
2013-7-10,92.1,85.3,80.7,78.5,77.0,73.9,88,77,62,30.01,29.88,18,6,19,0.00
2013-7-11,91.6,85.0,79.4,78.6,76.4,74.3,90,76,59,29.93,29.84,21,6,22,0.00
2013-7-12,91.0,84.3,77.6,77.6,75.6,73.5,92,76,63,29.89,29.82,18,5,19,0.00
2013-7-13,91.8,84.3,76.8,77.1,75.2,71.8,93,75,57,29.90,29.80,17,4,18,0.00
2013-7-14,90.7,83.9,77.9,78.6,76.0,73.0,90,78,63,29.86,29.76,21,7,22,0.00
2013-7-15,90.3,84.8,81.4,77.9,76.5,74.3,85,77,66,29.90,29.79,20,8,21,0.00
2013-7-16,89.0,81.7,76.5,78.5,75.9,72.8,95,83,66,29.97,29.86,26,7,27,0.70
2013-7-17,80.7,77.0,72.8,77.4,74.9,70.9,99,93,81,30.07,29.96,23,2,24,2.83
2013-7-18,88.4,80.5,74.9,77.5,75.8,73.1,98,86,67,30.05,29.90,15,3,16,0.14
2013-7-19,90.1,83.1,75.8,80.2,76.8,75.1,100,82,65,29.97,29.84,17,4,18,0.15
2013-7-20,90.3,84.4,80.3,78.2,76.6,75.4,87,78,65,29.91,29.79,17,6,18,0.00
2013-7-21,90.7,85.1,80.5,80.6,78.7,76.7,95,82,68,29.89,29.82,25,8,26,0.16
2013-7-22,91.0,85.6,82.6,80.5,79.0,77.6,88,81,69,29.93,29.84,27,10,28,0.00
2013-7-23,90.7,85.0,81.6,79.8,77.5,75.8,85,78,68,29.94,29.83,26,10,27,0.00
2013-7-24,91.2,84.9,80.9,78.9,77.5,75.1,89,79,64,29.91,29.81,22,7,23,0.00
2013-7-25,92.1,85.2,80.7,80.3,78.2,76.0,90,80,66,29.95,29.89,17,6,21,0.00
2013-7-26,90.7,84.5,80.7,80.3,78.2,76.6,90,82,72,29.96,29.84,26,8,27,0.00
2013-7-27,90.1,84.1,80.3,79.5,78.1,76.4,93,83,67,29.89,29.75,25,7,26,0.00
2013-7-28,89.9,84.2,80.1,79.5,78.4,77.0,94,83,69,29.87,29.79,25,8,26,0.00
2013-7-29,89.5,84.1,80.3,79.1,78.1,76.7,93,83,68,29.98,29.87,25,10,27,0.00
2013-7-30,90.1,83.9,79.8,79.6,78.4,76.9,95,84,69,30.03,29.94,25,8,26,0.00
2013-7-31,91.0,84.1,79.0,79.1,77.7,75.8,92,82,67,30.01,29.90,19,6,20,0.00
2013-8-1,91.8,84.7,78.3,78.6,77.1,73.8,95,79,61,29.95,29.85,17,6,18,0.00
2013-8-2,91.2,84.4,78.3,78.8,76.9,74.1,94,79,61,29.92,29.83,19,6,20,0.00
2013-8-3,91.8,85.2,80.5,80.5,78.3,75.3,92,80,66,29.95,29.88,20,7,21,0.00
2013-8-4,90.7,85.3,81.4,79.9,78.3,75.2,92,80,63,29.98,29.90,24,8,27,0.00
2013-8-5,91.0,84.7,80.9,79.8,78.5,76.8,94,82,66,29.97,29.85,27,8,28,0.00
2013-8-6,91.2,84.5,80.5,79.7,78.7,77.5,94,83,67,29.89,29.78,30,9,31,0.00
2013-8-7,90.7,84.1,79.8,80.3,78.3,76.7,93,83,68,29.86,29.76,28,9,29,0.00
2013-8-8,91.0,84.1,79.2,80.1,78.4,77.0,94,84,69,29.84,29.76,24,8,25,0.00
2013-8-9,91.8,84.4,78.8,80.8,77.9,75.3,93,82,61,29.89,29.80,17,4,18,0.00
2013-8-10,91.0,84.6,80.1,80.9,79.2,74.3,95,84,67,29.94,29.86,19,4,20,0.00
2013-8-11,91.6,84.2,77.2,80.7,77.7,74.4,97,82,65,29.96,29.89,18,4,19,0.06
2013-8-12,92.3,84.6,78.3,79.9,77.8,76.0,93,81,64,30.00,29.90,18,5,19,0.00
2013-8-13,92.3,85.5,81.2,79.8,78.5,76.8,92,80,65,29.97,29.83,20,7,21,0.00
2013-8-14,92.7,84.9,79.0,79.2,77.1,73.0,94,79,55,29.92,29.82,21,6,22,0.00
2013-8-15,91.0,84.2,76.3,79.4,77.2,74.7,96,80,62,29.91,29.83,18,6,19,0.00
2013-8-16,92.5,85.1,78.6,79.9,77.8,73.4,91,80,59,29.93,29.81,23,5,24,0.02
2013-8-17,89.7,82.7,75.6,77.4,74.8,72.1,92,78,60,29.93,29.83,19,5,20,0.00
2013-8-18,91.2,83.4,75.3,77.5,73.6,67.3,95,74,52,29.95,29.87,17,4,18,0.00
2013-8-19,90.3,82.8,74.2,76.0,74.0,71.6,95,76,58,29.96,29.85,16,5,17,0.00
2013-8-20,82.8,79.6,73.5,77.2,75.3,71.6,98,87,78,29.95,29.85,13,3,16,0.78
2013-8-21,91.2,84.8,80.3,79.7,78.0,75.6,93,80,65,29.97,29.90,17,4,18,0.00
2013-8-22,91.2,84.0,78.1,79.5,77.0,74.5,95,80,64,29.98,29.85,13,4,14,0.00
2013-8-23,90.1,84.3,77.9,80.3,77.1,74.1,94,79,64,29.92,29.82,17,4,18,0.24
2013-8-24,89.7,84.7,78.5,79.3,77.5,75.0,92,80,66,29.93,29.85,25,6,26,0.00
2013-8-25,90.3,84.6,79.8,79.9,77.5,75.9,92,80,66,29.97,29.89,21,5,22,0.00
2013-8-26,85.5,79.0,76.0,78.2,76.1,74.3,99,91,75,30.01,29.92,20,2,21,0.79
2013-8-27,91.0,84.6,78.1,79.5,77.4,72.7,91,80,64,30.00,29.91,16,5,17,0.00
2013-8-28,89.7,83.6,76.1,79.1,76.7,74.4,97,80,67,30.00,29.92,18,4,19,0.00
2013-8-29,92.1,85.2,77.4,79.4,76.7,73.9,95,77,58,29.99,29.90,15,3,16,0.00
2013-8-30,92.5,84.6,76.8,77.2,75.5,71.3,95,75,52,29.96,29.84,14,4,15,0.00
2013-8-31,91.2,84.2,76.7,77.1,75.1,70.3,91,75,55,29.88,29.77,18,5,19,0.00
2013-9-1,92.7,85.4,77.6,78.9,76.8,74.7,92,76,60,29.85,29.76,19,6,20,0.00
2013-9-2,92.5,85.8,79.0,79.9,77.3,74.6,91,76,62,29.88,29.79,19,6,20,0.00
2013-9-3,92.5,84.8,77.4,78.6,76.4,72.3,95,77,57,29.93,29.82,14,3,15,0.00
2013-9-4,91.2,84.2,76.7,78.4,76.4,74.0,95,78,59,29.96,29.86,16,3,17,0.00
2013-9-5,91.4,85.5,82.2,78.0,76.8,74.5,84,76,62,29.98,29.90,17,5,18,0.00
2013-9-6,89.0,83.4,77.6,79.2,76.6,74.4,93,80,67,29.98,29.87,15,3,19,0.27
2013-9-7,89.9,82.2,76.0,78.3,76.2,73.5,95,82,67,29.94,29.83,14,3,15,0.02
2013-9-8,87.8,80.1,73.9,77.9,75.4,71.3,98,86,70,29.90,29.80,13,3,18,1.74
2013-9-9,88.6,82.1,77.6,78.7,75.7,73.7,92,81,66,29.87,29.79,20,6,21,0.21
2013-9-10,88.4,80.5,74.9,79.1,76.0,72.8,98,87,71,29.94,29.84,24,4,25,1.97
2013-9-11,87.8,82.1,76.5,80.3,76.8,72.7,92,84,72,29.97,29.89,27,3,28,0.24
2013-9-12,88.4,83.6,79.6,77.9,76.1,72.8,89,78,63,29.93,29.82,18,5,19,0.00
2013-9-13,87.6,82.1,77.2,78.3,76.3,74.5,97,83,68,29.85,29.73,19,6,20,0.05
2013-9-14,88.4,83.6,78.8,79.0,76.8,74.8,92,80,68,29.81,29.73,22,6,23,0.15
2013-9-15,88.8,83.9,79.6,78.6,77.2,73.3,91,81,70,29.85,29.76,19,9,24,0.18
2013-9-16,86.7,81.8,76.1,80.2,77.4,73.3,97,87,77,29.90,29.80,26,8,27,0.95
2013-9-17,89.5,83.7,78.1,79.8,77.7,72.9,90,82,70,29.92,29.83,18,6,20,0.02
2013-9-18,88.0,83.2,78.3,79.0,77.2,73.4,92,82,73,29.90,29.79,18,5,19,0.01
2013-9-19,89.5,84.0,80.3,80.4,78.2,76.1,91,83,71,29.83,29.73,18,5,19,0.01
2013-9-20,89.3,83.5,78.6,81.0,79.0,76.4,95,87,73,29.76,29.62,21,6,22,0.25
2013-9-21,78.5,76.1,74.0,76.9,72.4,68.1,100,89,73,29.74,29.64,27,7,28,0.43
2013-9-22,85.3,77.9,72.1,70.6,66.9,60.7,88,70,44,29.76,29.66,16,5,19,0.00
2013-9-23,86.3,78.4,72.3,75.5,72.0,66.8,93,81,67,29.73,29.65,14,3,15,0.00
2013-9-24,93.8,82.3,73.5,77.4,73.0,69.5,94,76,47,29.82,29.72,14,2,15,0.00
2013-9-25,93.2,82.3,73.2,77.7,73.2,64.6,96,76,41,29.81,29.72,12,3,13,0.00
2013-9-26,90.1,83.5,79.0,77.4,75.7,72.8,92,78,59,29.80,29.73,21,4,22,0.00
2013-9-27,90.1,84.8,81.4,80.3,78.8,75.8,90,83,72,29.82,29.74,22,9,23,0.00
2013-9-28,90.1,85.1,82.4,80.3,78.6,75.4,91,81,67,29.88,29.78,22,8,23,0.00
2013-9-29,88.8,80.6,75.4,77.9,75.9,74.2,98,86,64,29.93,29.80,18,2,19,1.02
2013-9-30,88.0,80.1,74.9,78.8,76.5,74.3,100,89,71,29.85,29.73,13,2,14,0.00
2013-10-1,89.5,83.3,78.3,79.9,77.8,75.4,96,84,71,29.82,29.74,20,6,21,0.00
2013-10-2,91.0,84.1,79.0,78.8,76.7,74.5,89,79,66,29.86,29.78,16,6,17,0.00
2013-10-3,88.4,83.0,76.7,77.0,75.3,73.1,96,78,64,29.85,29.78,15,5,16,0.10
2013-10-4,89.0,83.3,79.2,77.8,75.7,72.7,89,78,67,29.84,29.78,16,6,19,0.00
2013-10-5,89.3,82.9,75.6,78.8,76.4,73.8,95,81,67,29.85,29.77,15,4,16,0.00
2013-10-6,82.2,69.7,58.6,77.6,58.1,47.2,96,69,38,30.04,29.85,27,6,28,0.38
2013-10-7,81.4,70.5,60.2,58.9,54.0,44.6,82,58,30,30.09,29.98,14,2,15,0.00
2013-10-8,81.8,71.6,60.4,63.8,60.0,55.1,90,69,48,30.02,29.92,11,2,12,0.00
2013-10-9,85.9,78.3,69.6,69.0,65.9,62.9,82,66,54,29.96,29.88,13,4,14,0.00
2013-10-10,87.2,80.6,76.0,73.8,70.3,66.1,83,71,59,29.94,29.82,21,6,22,0.00
2013-10-11,88.2,82.5,79.4,79.1,76.6,72.3,92,83,72,29.84,29.75,21,8,22,0.00
2013-10-12,89.0,83.3,80.7,80.0,78.8,77.4,94,86,74,29.93,29.81,20,6,21,0.00
2013-10-13,87.4,80.9,75.4,79.3,76.9,73.1,95,88,70,30.03,29.91,17,6,18,0.29
2013-10-14,85.3,81.4,78.8,77.2,74.2,72.1,91,79,70,29.98,29.85,20,7,21,0.03
2013-10-15,87.6,81.6,78.8,75.0,73.2,71.2,85,76,64,29.90,29.79,17,6,18,0.00
2013-10-16,80.5,75.9,66.4,75.7,70.2,62.1,95,83,72,29.96,29.81,20,4,21,0.00
2013-10-17,76.7,69.7,65.2,67.9,61.9,57.1,88,77,62,30.01,29.88,17,5,18,0.00
2013-10-18,82.6,76.8,73.2,77.6,73.7,67.9,99,90,82,29.90,29.73,15,4,16,1.03
2013-10-19,77.9,68.0,62.1,76.0,59.9,48.2,99,77,49,30.05,29.80,25,7,26,0.34
2013-10-20,78.1,67.9,56.9,67.4,59.8,48.5,86,76,61,30.01,29.84,12,3,13,0.00
2013-10-21,81.4,74.0,68.8,76.1,71.1,67.3,100,91,78,29.88,29.77,19,2,20,1.42
2013-10-22,78.3,70.2,63.4,70.6,61.7,50.8,100,76,50,30.04,29.88,20,5,21,0.00
2013-10-23,79.8,67.6,57.6,59.5,53.7,44.5,86,64,30,30.11,30.02,12,2,13,0.00
2013-10-24,80.3,69.4,57.3,67.0,61.2,54.7,95,77,54,30.14,30.05,14,2,15,0.00
2013-10-25,82.0,76.0,69.1,70.6,67.1,63.0,86,74,62,30.20,30.10,17,5,18,0.00
2013-10-26,84.0,77.9,74.4,71.7,69.0,66.4,87,74,61,30.11,29.99,21,6,22,0.00
2013-10-27,84.3,76.9,68.8,74.3,71.1,67.1,99,83,58,30.01,29.90,16,3,17,0.00
2013-10-28,83.8,78.3,74.9,74.7,73.0,71.3,92,84,70,29.99,29.91,21,6,22,0.00
2013-10-29,84.7,79.5,76.7,76.6,74.1,72.2,93,84,72,30.01,29.90,23,8,24,0.00
2013-10-30,85.1,80.5,78.1,78.4,77.2,75.1,95,90,79,29.93,29.76,20,9,25,0.00
2013-10-31,86.5,80.6,77.4,78.3,75.9,70.6,97,86,65,29.81,29.70,23,5,24,0.10
2013-11-1,84.3,78.2,72.1,72.9,70.3,65.7,96,77,62,29.92,29.75,17,4,18,0.00
2013-11-2,77.6,70.4,63.9,71.7,47.0,38.3,96,45,25,30.17,29.92,25,9,26,0.00
2013-11-3,76.8,69.4,61.0,59.2,54.3,45.1,76,59,45,30.15,29.95,13,4,14,0.00
2013-11-4,78.6,72.1,62.6,69.9,64.5,58.0,92,78,57,29.97,29.85,11,2,12,0.00
2013-11-5,82.8,76.4,69.6,74.5,72.0,67.8,98,87,73,29.92,29.83,23,6,24,0.00
2013-11-6,85.9,74.5,60.4,75.6,70.0,53.2,97,86,69,30.15,29.89,24,6,25,0.17
2013-11-7,67.4,60.9,56.0,53.3,44.4,35.4,78,56,33,30.32,30.15,28,8,29,0.00
2013-11-8,68.4,62.7,56.2,59.1,54.1,45.6,87,74,57,30.27,30.07,19,6,20,0.00
2013-11-9,78.1,69.0,59.5,66.2,63.0,57.2,96,82,58,30.08,30.02,14,2,15,0.00
2013-11-10,72.3,68.1,65.2,68.3,62.3,55.6,98,83,58,30.19,30.06,21,5,22,0.00
2013-11-11,73.3,69.1,66.1,66.1,62.6,57.3,89,80,72,30.16,30.05,16,4,17,0.00
2013-11-12,72.7,65.0,55.7,64.9,57.5,46.0,95,77,59,30.45,30.10,27,8,28,0.00
2013-11-13,55.7,51.0,45.7,47.5,38.1,30.6,75,62,41,30.52,30.31,26,6,27,0.00
2013-11-14,67.1,58.2,48.3,59.6,51.3,37.6,97,78,60,30.31,29.96,13,2,14,0.00
2013-11-15,75.3,65.8,55.1,67.3,62.1,54.5,100,89,69,29.96,29.82,11,2,12,0.00
2013-11-16,78.5,72.7,66.0,74.5,71.2,64.9,100,95,86,29.85,29.71,22,4,23,0.01
2013-11-17,81.4,74.7,70.9,74.7,72.7,70.9,100,94,79,29.85,29.73,19,4,20,0.00
2013-11-18,78.8,73.4,69.1,77.4,72.1,66.1,100,96,84,29.98,29.84,23,4,24,0.01
2013-11-19,72.5,69.3,67.3,67.2,64.9,62.2,93,86,79,29.99,29.89,22,8,23,0.00
2013-11-20,81.2,74.1,69.4,74.8,71.5,67.0,98,92,78,29.90,29.78,15,5,16,0.00
2013-11-21,83.0,76.9,72.7,77.1,74.8,72.4,100,93,78,29.96,29.84,21,6,22,0.01
2013-11-22,77.6,59.8,42.8,77.3,59.5,42.1,100,99,92,30.23,29.94,26,6,27,0.22
2013-11-23,47.1,44.6,41.8,45.5,42.9,40.9,99,94,88,30.32,30.21,24,8,25,0.01
2013-11-24,47.6,45.8,42.9,47.6,42.7,38.8,100,89,77,30.33,30.20,19,7,20,0.18
2013-11-25,46.8,43.8,41.5,45.2,41.9,38.2,98,93,82,30.20,29.94,25,7,26,0.33
2013-11-26,50.7,44.9,39.5,41.8,38.8,35.5,98,80,59,30.29,30.03,30,8,32,0.16
2013-11-27,52.0,44.8,38.6,38.2,34.0,29.4,92,67,46,30.40,30.29,23,4,24,0.00
2013-11-28,56.9,50.1,40.5,52.1,42.6,31.9,96,76,58,30.36,30.26,15,4,16,0.00
2013-11-29,66.0,57.5,48.2,59.7,54.7,47.7,100,91,80,30.35,30.27,23,6,24,0.00
2013-11-30,74.0,65.7,57.6,63.6,60.0,56.8,97,83,63,30.28,30.13,11,3,15,0.00
2013-12-1,76.0,66.6,56.9,64.9,62.0,56.1,99,86,68,30.14,29.91,18,3,19,0.00
2013-12-2,78.3,66.5,58.1,66.6,63.2,58.1,100,90,65,29.91,29.67,15,3,16,0.01
2013-12-3,75.8,68.5,63.2,69.4,66.0,62.6,100,92,77,29.70,29.58,17,5,18,0.00
2013-12-4,77.0,70.6,66.8,71.8,69.4,66.5,100,96,84,29.73,29.62,22,5,23,0.00
2013-12-5,75.6,63.3,43.2,73.9,61.8,40.2,100,95,86,29.93,29.71,25,6,26,0.01
2013-12-6,47.9,41.9,37.0,40.7,37.0,31.1,94,83,71,30.30,29.92,23,8,24,0.00
2013-12-7,37.0,35.9,35.2,33.6,31.5,30.0,90,84,79,30.36,30.21,19,6,20,0.00
2013-12-8,48.2,41.8,35.9,46.8,39.2,33.0,96,90,84,30.20,29.98,14,4,15,0.00
2013-12-9,53.6,49.2,43.3,53.6,49.0,42.1,100,99,95,30.20,29.94,23,5,24,0.04
2013-12-10,47.6,42.9,37.9,42.0,33.7,30.1,97,71,52,30.41,30.21,27,6,28,0.00
2013-12-11,53.5,49.6,45.7,45.8,40.7,35.7,76,71,66,30.41,30.23,13,3,14,0.00
2013-12-12,55.9,50.8,46.1,44.0,40.9,39.0,80,69,56,30.47,30.25,21,4,22,0.00
2013-12-13,66.6,56.4,48.0,61.0,51.1,41.3,95,82,74,30.25,29.81,11,2,12,0.00
2013-12-14,70.3,57.6,47.0,56.7,48.6,38.6,94,74,40,30.25,29.81,23,4,24,0.00
2013-12-15,58.6,47.2,38.9,41.9,36.5,33.0,93,68,38,30.36,30.23,14,2,16,0.00
2013-12-16,63.7,49.9,36.6,51.6,42.8,35.0,96,79,43,30.28,30.16,10,1,11,0.00
2013-12-17,67.6,55.5,41.9,57.2,51.7,41.6,100,88,65,30.26,30.16,10,1,11,0.01
2013-12-18,71.6,61.0,48.3,61.5,55.6,48.0,100,84,59,30.22,30.01,11,2,12,0.01
2013-12-19,72.8,67.1,63.2,66.6,64.0,59.3,98,90,79,30.01,29.77,27,6,28,0.00
2013-12-20,74.7,68.6,64.3,70.8,67.7,64.2,100,97,86,29.78,29.59,27,7,28,0.01
2013-12-21,79.4,69.1,61.8,70.4,65.1,57.2,100,88,62,29.73,29.51,22,5,27,0.00
2013-12-22,72.0,62.2,48.6,59.0,50.7,37.3,93,69,38,30.25,29.72,24,5,25,0.00
2013-12-23,57.3,48.3,41.3,41.7,34.8,29.0,75,61,35,30.45,30.25,20,4,21,0.00
2013-12-24,61.5,52.8,40.5,52.5,45.8,37.2,93,78,63,30.45,30.18,12,2,13,0.00
2013-12-25,69.3,59.1,51.3,59.7,55.9,49.1,99,89,70,30.24,30.13,12,2,13,0.00
2013-12-26,58.0,54.9,52.0,57.4,51.4,47.2,98,88,74,30.30,30.20,17,5,18,0.08
2013-12-27,55.6,53.1,50.8,51.5,50.1,47.5,97,90,77,30.32,30.23,12,2,13,0.09
2013-12-28,60.9,52.6,46.2,50.0,43.6,33.6,90,73,37,30.23,29.98,7,1,8,0.00
2013-12-29,62.3,54.8,43.8,56.0,49.3,41.5,95,82,57,30.04,29.93,11,1,11,0.00
2013-12-30,58.6,44.9,41.6,55.1,39.7,36.1,89,82,73,30.32,30.02,24,3,24,0.07
2013-12-31,47.1,44.5,42.5,45.2,39.8,36.4,93,83,74,30.37,30.19,7,2,12,0.07
2014-1-1,56.7,51.7,47.0,56.6,50.1,45.1,100,94,88,30.19,29.94,6,1,6,0.00
2014-1-2,57.6,51.6,44.1,57.5,40.7,27.4,100,68,44,30.38,29.99,19,4,28,0.01